Time,TemperatureF,DewpointF,PressureIn,WindDirection,WindDirectionDegrees,WindSpeedMPH,WindSpeedGustMPH,Humidity,HourlyPrecipIn,Conditions,Clouds,dailyrainin,SoftwareType,DateUTC
2013-02-26 00:00:00,16.0,15.0,-100.00,SW,226,3.0,6.0,94,0.00,,,-99.99,,2013-02-26 07:00:00,
2013-02-26 00:01:00,17.0,15.0,-100.00,WNW,285,5.0,8.0,94,0.00,,,-99.99,,2013-02-26 07:01:00,
2013-02-26 00:11:00,17.0,15.0,-100.00,WNW,285,5.0,8.0,94,0.00,,,-99.99,,2013-02-26 07:11:00,
2013-02-26 00:22:00,16.0,15.0,-100.00,WSW,248,4.0,9.0,93,0.00,,,-99.99,,2013-02-26 07:22:00,
2013-02-26 00:31:00,16.0,15.0,-100.00,WSW,248,4.0,9.0,93,0.00,,,-99.99,,2013-02-26 07:31:00,
2013-02-26 00:41:00,16.0,15.0,-100.00,SW,226,3.0,6.0,94,0.00,,,-99.99,,2013-02-26 07:41:00,
2013-02-26 00:52:00,16.0,15.0,-100.00,SW,226,3.0,6.0,94,0.00,,,-99.99,,2013-02-26 07:52:00,
2013-02-26 01:11:00,15.0,14.0,-100.00,SSW,199,3.0,7.0,95,0.00,,,-99.99,,2013-02-26 08:11:00,
2013-02-26 01:21:00,15.0,14.0,-100.00,SSW,199,3.0,7.0,95,0.00,,,-99.99,,2013-02-26 08:21:00,
2013-02-26 01:31:00,15.0,14.0,-100.00,SSW,199,3.0,7.0,95,0.00,,,-99.99,,2013-02-26 08:31:00,
2013-02-26 01:41:00,15.0,14.0,-100.00,South,169,4.0,6.0,95,0.00,,,-99.99,,2013-02-26 08:41:00,
2013-02-26 01:52:00,15.0,15.0,-100.00,East,96,3.0,5.0,97,0.00,,,-99.99,,2013-02-26 08:52:00,
2013-02-26 02:01:00,15.0,15.0,-100.00,East,96,3.0,5.0,97,0.00,,,-99.99,,2013-02-26 09:01:00,
2013-02-26 02:11:00,16.0,15.0,-100.00,SSW,206,2.0,3.0,97,0.04,,,-99.99,,2013-02-26 09:11:00,
2013-02-26 02:21:00,16.0,15.0,-100.00,SSW,206,2.0,3.0,97,0.04,,,-99.99,,2013-02-26 09:21:00,
2013-02-26 02:31:00,16.0,15.0,-100.00,SSW,206,2.0,3.0,97,0.04,,,-99.99,,2013-02-26 09:31:00,
2013-02-26 02:43:00,16.0,15.0,-100.00,SSW,205,2.0,5.0,97,0.00,,,-99.99,,2013-02-26 09:43:00,
2013-02-26 02:52:00,16.0,15.0,-100.00,SSW,206,2.0,6.0,96,0.00,,,-99.99,,2013-02-26 09:52:00,
2013-02-26 03:01:00,16.0,15.0,-100.00,SSW,206,2.0,6.0,96,0.00,,,-99.99,,2013-02-26 10:01:00,
2013-02-26 03:11:00,17.0,15.0,-100.00,WSW,250,2.0,5.0,95,0.00,,,-99.99,,2013-02-26 10:11:00,
2013-02-26 03:21:00,16.0,15.0,-100.00,WSW,239,1.0,2.0,95,0.00,,,-99.99,,2013-02-26 10:21:00,
2013-02-26 03:31:00,16.0,15.0,-100.00,WSW,239,1.0,2.0,95,0.00,,,-99.99,,2013-02-26 10:31:00,
2013-02-26 03:41:00,16.0,15.0,-100.00,SSW,213,1.0,2.0,95,0.00,,,-99.99,,2013-02-26 10:41:00,
2013-02-26 03:52:00,16.0,14.0,-100.00,WNW,288,5.0,10.0,93,0.00,,,-99.99,,2013-02-26 10:52:00,
2013-02-26 04:00:00,15.0,13.0,-100.00,WSW,248,3.0,5.0,92,0.00,,,-99.99,,2013-02-26 11:00:00,
2013-02-26 04:01:00,16.0,14.0,-100.00,WNW,288,5.0,10.0,93,0.00,,,-99.99,,2013-02-26 11:01:00,
2013-02-26 04:11:00,16.0,14.0,-100.00,WSW,257,2.0,6.0,93,0.00,,,-99.99,,2013-02-26 11:11:00,
2013-02-26 04:21:00,15.0,14.0,-100.00,WSW,246,1.0,2.0,94,0.00,,,-99.99,,2013-02-26 11:21:00,
2013-02-26 04:31:00,15.0,14.0,-100.00,WSW,246,1.0,2.0,94,0.00,,,-99.99,,2013-02-26 11:31:00,
2013-02-26 04:41:00,15.0,13.0,-100.00,WSW,248,3.0,5.0,92,0.00,,,-99.99,,2013-02-26 11:41:00,
2013-02-26 04:52:00,15.0,13.0,-100.00,WSW,248,3.0,5.0,92,0.00,,,-99.99,,2013-02-26 11:52:00,
2013-02-26 05:11:00,14.0,13.0,-100.00,West,274,0.0,3.0,94,0.00,,,-99.99,,2013-02-26 12:11:00,
2013-02-26 05:22:00,15.0,13.0,-100.00,SSW,209,2.0,4.0,95,0.00,,,-99.99,,2013-02-26 12:22:00,
2013-02-26 05:32:00,15.0,13.0,-100.00,SSW,209,2.0,4.0,95,0.00,,,-99.99,,2013-02-26 12:32:00,
2013-02-26 05:42:00,14.0,12.0,-100.00,WSW,239,3.0,6.0,94,0.00,,,-99.99,,2013-02-26 12:42:00,
2013-02-26 05:53:00,14.0,13.0,-100.00,SW,217,6.0,13.0,93,0.00,,,-99.99,,2013-02-26 12:53:00,
2013-02-26 06:01:00,14.0,13.0,-100.00,SW,217,6.0,13.0,93,0.00,,,-99.99,,2013-02-26 13:01:00,
2013-02-26 06:11:00,14.0,13.0,-100.00,WSW,246,4.0,11.0,92,0.00,,,-99.99,,2013-02-26 13:11:00,
2013-02-26 06:21:00,15.0,13.0,-100.00,WNW,301,5.0,7.0,91,0.00,,,-99.99,,2013-02-26 13:21:00,
2013-02-26 06:31:00,15.0,13.0,-100.00,WNW,301,5.0,7.0,91,0.00,,,-99.99,,2013-02-26 13:31:00,
2013-02-26 06:42:00,15.0,13.0,-100.00,WNW,301,5.0,7.0,91,0.00,,,-99.99,,2013-02-26 13:42:00,
2013-02-26 06:52:00,15.0,13.0,-100.00,WSW,240,3.0,6.0,92,0.00,,,-99.99,,2013-02-26 13:52:00,
2013-02-26 07:01:00,15.0,13.0,-100.00,WSW,240,3.0,6.0,92,0.00,,,-99.99,,2013-02-26 14:01:00,
2013-02-26 07:11:00,15.0,13.0,-100.00,WSW,240,3.0,6.0,92,0.00,,,-99.99,,2013-02-26 14:11:00,
2013-02-26 07:21:00,15.0,13.0,-100.00,ESE,121,2.0,4.0,93,0.00,,,-99.99,,2013-02-26 14:21:00,
2013-02-26 07:31:00,15.0,13.0,-100.00,ESE,121,2.0,4.0,93,0.00,,,-99.99,,2013-02-26 14:31:00,
2013-02-26 07:42:00,14.0,13.0,-100.00,SE,126,2.0,4.0,94,0.04,,,-99.99,,2013-02-26 14:42:00,
2013-02-26 07:52:00,14.0,13.0,-100.00,SE,126,2.0,4.0,94,0.04,,,-99.99,,2013-02-26 14:52:00,
2013-02-26 08:00:00,15.0,13.0,-100.00,SE,143,2.0,3.0,93,0.00,,,-99.99,,2013-02-26 15:00:00,
2013-02-26 08:02:00,14.0,13.0,-100.00,SE,126,2.0,4.0,94,0.04,,,-99.99,,2013-02-26 15:02:00,
2013-02-26 08:11:00,15.0,13.0,-100.00,South,179,2.0,7.0,92,0.00,,,-99.99,,2013-02-26 15:11:00,
2013-02-26 08:21:00,14.0,13.0,-100.00,East,93,2.0,5.0,92,0.00,,,-99.99,,2013-02-26 15:21:00,
2013-02-26 08:32:00,14.0,13.0,-100.00,East,93,2.0,5.0,92,0.00,,,-99.99,,2013-02-26 15:32:00,
2013-02-26 08:41:00,15.0,13.0,-100.00,SE,143,2.0,3.0,93,0.00,,,-99.99,,2013-02-26 15:41:00,
2013-02-26 08:52:00,15.0,13.0,-100.00,SE,143,2.0,3.0,93,0.00,,,-99.99,,2013-02-26 15:52:00,
2013-02-26 09:11:00,17.0,15.0,-100.00,SW,226,2.0,3.0,92,0.00,,,-99.99,,2013-02-26 16:11:00,
2013-02-26 09:22:00,17.0,15.0,-100.00,WSW,243,4.0,9.0,90,0.00,,,-99.99,,2013-02-26 16:22:00,
2013-02-26 09:31:00,17.0,15.0,-100.00,WSW,243,4.0,9.0,90,0.00,,,-99.99,,2013-02-26 16:31:00,
2013-02-26 09:42:00,18.0,14.0,-100.00,SW,223,3.0,7.0,87,0.04,,,-99.99,,2013-02-26 16:42:00,
2013-02-26 09:52:00,17.0,14.0,-100.00,SSW,198,4.0,6.0,87,0.00,,,-99.99,,2013-02-26 16:52:00,
2013-02-26 10:01:00,17.0,14.0,-100.00,SSW,198,4.0,6.0,87,0.00,,,-99.99,,2013-02-26 17:01:00,
2013-02-26 10:11:00,18.0,15.0,-100.00,South,171,2.0,4.0,88,0.04,,,-99.99,,2013-02-26 17:11:00,
2013-02-26 10:21:00,18.0,15.0,-100.00,SW,219,5.0,7.0,86,0.00,,,-99.99,,2013-02-26 17:21:00,
2013-02-26 10:32:00,18.0,15.0,-100.00,SW,219,5.0,7.0,86,0.00,,,-99.99,,2013-02-26 17:32:00,
2013-02-26 10:41:00,18.0,15.0,-100.00,SSW,203,3.0,5.0,87,0.00,,,-99.99,,2013-02-26 17:41:00,
2013-02-26 10:52:00,19.0,15.0,-100.00,SSW,205,3.0,5.0,83,0.00,,,-99.99,,2013-02-26 17:52:00,
2013-02-26 11:01:00,19.0,15.0,-100.00,SSW,205,3.0,5.0,83,0.00,,,-99.99,,2013-02-26 18:01:00,
2013-02-26 11:12:00,20.0,16.0,-100.00,SW,230,1.0,3.0,85,0.04,,,-99.99,,2013-02-26 18:12:00,
2013-02-26 11:21:00,20.0,16.0,-100.00,SW,230,1.0,3.0,85,0.04,,,-99.99,,2013-02-26 18:21:00,
2013-02-26 11:32:00,20.0,16.0,-100.00,SW,230,1.0,3.0,85,0.04,,,-99.99,,2013-02-26 18:32:00,
2013-02-26 11:42:00,20.0,17.0,-100.00,SW,234,1.0,2.0,88,0.00,,,-99.99,,2013-02-26 18:42:00,
2013-02-26 11:52:00,20.0,17.0,-100.00,SW,234,1.0,2.0,88,0.00,,,-99.99,,2013-02-26 18:52:00,
2013-02-26 12:01:00,20.0,17.0,-100.00,SW,234,1.0,2.0,88,0.00,,,-99.99,,2013-02-26 19:01:00,
2013-02-26 12:11:00,21.0,16.0,-100.00,South,188,3.0,5.0,81,0.00,,,-99.99,,2013-02-26 19:11:00,
2013-02-26 12:22:00,20.0,17.0,-100.00,SE,124,4.0,6.0,87,0.00,,,-99.99,,2013-02-26 19:22:00,
2013-02-26 12:31:00,20.0,17.0,-100.00,SE,124,4.0,6.0,87,0.00,,,-99.99,,2013-02-26 19:31:00,
2013-02-26 12:41:00,20.0,17.0,-100.00,SSE,158,3.0,5.0,87,0.00,,,-99.99,,2013-02-26 19:41:00,
2013-02-26 12:52:00,20.0,17.0,-100.00,SSE,158,3.0,5.0,87,0.00,,,-99.99,,2013-02-26 19:52:00,
2013-02-26 13:01:00,20.0,17.0,-100.00,SSE,158,3.0,5.0,87,0.00,,,-99.99,,2013-02-26 20:01:00,
2013-02-26 13:11:00,20.0,17.0,-100.00,SSE,158,3.0,5.0,87,0.00,,,-99.99,,2013-02-26 20:11:00,
2013-02-26 13:22:00,22.0,18.0,-100.00,SW,229,1.0,2.0,85,0.00,,,-99.99,,2013-02-26 20:22:00,
2013-02-26 13:32:00,22.0,18.0,-100.00,SW,229,1.0,2.0,85,0.00,,,-99.99,,2013-02-26 20:32:00,
2013-02-26 13:42:00,22.0,18.0,-100.00,SW,229,1.0,2.0,85,0.00,,,-99.99,,2013-02-26 20:42:00,
2013-02-26 13:52:00,22.0,17.0,-100.00,SSW,200,3.0,5.0,83,0.00,,,-99.99,,2013-02-26 20:52:00,
2013-02-26 14:01:00,22.0,17.0,-100.00,SSW,200,3.0,5.0,83,0.00,,,-99.99,,2013-02-26 21:01:00,
2013-02-26 14:11:00,24.0,17.0,-100.00,SE,128,2.0,5.0,75,0.00,,,-99.99,,2013-02-26 21:11:00,
2013-02-26 14:21:00,24.0,18.0,-100.00,SW,220,1.0,2.0,79,0.00,,,-99.99,,2013-02-26 21:21:00,
2013-02-26 14:31:00,24.0,18.0,-100.00,SW,220,1.0,2.0,79,0.00,,,-99.99,,2013-02-26 21:31:00,
2013-02-26 14:41:00,23.0,14.0,-100.00,SW,216,3.0,6.0,66,0.00,,,-99.99,,2013-02-26 21:41:00,
2013-02-26 14:51:00,24.0,15.0,-100.00,SSW,213,3.0,5.0,66,0.00,,,-99.99,,2013-02-26 21:51:00,
2013-02-26 15:01:00,24.0,15.0,-100.00,SSW,213,3.0,5.0,66,0.00,,,-99.99,,2013-02-26 22:01:00,
2013-02-26 15:11:00,24.0,15.0,-100.00,SSW,213,3.0,5.0,66,0.00,,,-99.99,,2013-02-26 22:11:00,
2013-02-26 15:21:00,23.0,13.0,-100.00,South,176,2.0,6.0,65,0.00,,,-99.99,,2013-02-26 22:21:00,
2013-02-26 15:31:00,23.0,13.0,-100.00,South,176,2.0,6.0,65,0.00,,,-99.99,,2013-02-26 22:31:00,
2013-02-26 15:41:00,24.0,14.0,-100.00,SW,217,3.0,6.0,66,0.00,,,-99.99,,2013-02-26 22:41:00,
2013-02-26 15:52:00,23.0,14.0,-100.00,SSW,202,2.0,5.0,67,0.00,,,-99.99,,2013-02-26 22:52:00,
2013-02-26 16:00:00,22.0,15.0,-100.00,NW,325,5.0,6.0,74,0.00,,,-99.99,,2013-02-26 23:00:00,
2013-02-26 16:01:00,23.0,14.0,-100.00,SSW,202,2.0,5.0,67,0.00,,,-99.99,,2013-02-26 23:01:00,
2013-02-26 16:11:00,23.0,15.0,-100.00,WNW,288,1.0,4.0,69,0.00,,,-99.99,,2013-02-26 23:11:00,
2013-02-26 16:21:00,23.0,15.0,-100.00,WNW,288,1.0,4.0,69,0.00,,,-99.99,,2013-02-26 23:21:00,
2013-02-26 16:31:00,23.0,15.0,-100.00,WNW,288,1.0,4.0,69,0.00,,,-99.99,,2013-02-26 23:31:00,
2013-02-26 16:41:00,22.0,15.0,-100.00,NW,325,5.0,6.0,74,0.00,,,-99.99,,2013-02-26 23:41:00,
2013-02-26 16:52:00,22.0,15.0,-100.00,NW,325,5.0,6.0,74,0.00,,,-99.99,,2013-02-26 23:52:00,
2013-02-26 17:11:00,22.0,14.0,-100.00,SSW,200,4.0,8.0,70,0.00,,,-99.99,,2013-02-27 00:11:00,
2013-02-26 17:21:00,22.0,14.0,-100.00,SSE,157,3.0,5.0,70,0.00,,,-99.99,,2013-02-27 00:21:00,
2013-02-26 17:31:00,22.0,14.0,-100.00,SSE,157,3.0,5.0,70,0.00,,,-99.99,,2013-02-27 00:31:00,
2013-02-26 17:41:00,22.0,15.0,-100.00,WSW,256,3.0,5.0,73,0.00,,,-99.99,,2013-02-27 00:41:00,
2013-02-26 17:52:00,21.0,13.0,-100.00,SW,224,3.0,5.0,70,0.00,,,-99.99,,2013-02-27 00:52:00,
2013-02-26 18:01:00,21.0,13.0,-100.00,SW,224,3.0,5.0,70,0.00,,,-99.99,,2013-02-27 01:01:00,
2013-02-26 18:11:00,21.0,14.0,-100.00,South,185,2.0,2.0,76,0.00,,,-99.99,,2013-02-27 01:11:00,
2013-02-26 18:21:00,21.0,14.0,-100.00,South,185,2.0,2.0,76,0.00,,,-99.99,,2013-02-27 01:21:00,
2013-02-26 18:31:00,21.0,14.0,-100.00,South,185,2.0,2.0,76,0.00,,,-99.99,,2013-02-27 01:31:00,
2013-02-26 18:41:00,20.0,14.0,-100.00,SSW,193,1.0,3.0,77,0.00,,,-99.99,,2013-02-27 01:41:00,
2013-02-26 18:52:00,20.0,14.0,-100.00,SSE,161,1.0,3.0,77,0.00,,,-99.99,,2013-02-27 01:52:00,
2013-02-26 19:01:00,20.0,14.0,-100.00,SSE,161,1.0,3.0,77,0.00,,,-99.99,,2013-02-27 02:01:00,
2013-02-26 19:13:00,19.0,13.0,-100.00,WSW,240,0.0,2.0,78,0.00,,,-99.99,,2013-02-27 02:13:00,
2013-02-26 19:22:00,18.0,13.0,-100.00,SSW,208,1.0,3.0,79,0.00,,,-99.99,,2013-02-27 02:22:00,
2013-02-26 19:32:00,18.0,13.0,-100.00,SSW,208,1.0,3.0,79,0.00,,,-99.99,,2013-02-27 02:32:00,
2013-02-26 19:42:00,14.0,11.0,-100.00,WSW,246,1.0,2.0,85,0.00,,,-99.99,,2013-02-27 02:42:00,
2013-02-26 19:52:00,14.0,11.0,-100.00,WSW,246,1.0,2.0,85,0.00,,,-99.99,,2013-02-27 02:52:00,
2013-02-26 20:01:00,14.0,11.0,-100.00,WSW,246,1.0,2.0,85,0.00,,,-99.99,,2013-02-27 03:01:00,
2013-02-26 20:11:00,13.0,10.0,-100.00,NW,322,0.0,2.0,89,0.00,,,-99.99,,2013-02-27 03:11:00,
2013-02-26 20:21:00,13.0,11.0,-100.00,WSW,253,1.0,2.0,90,0.00,,,-99.99,,2013-02-27 03:21:00,
2013-02-26 20:31:00,13.0,11.0,-100.00,WSW,253,1.0,2.0,90,0.00,,,-99.99,,2013-02-27 03:31:00,
2013-02-26 20:41:00,13.0,11.0,-100.00,WSW,253,0.0,1.0,91,0.00,,,-99.99,,2013-02-27 03:41:00,
2013-02-26 20:52:00,14.0,12.0,-100.00,WSW,253,0.0,1.0,91,0.00,,,-99.99,,2013-02-27 03:52:00,
2013-02-26 21:01:00,14.0,12.0,-100.00,WSW,253,0.0,1.0,91,0.00,,,-99.99,,2013-02-27 04:01:00,
2013-02-26 21:11:00,15.0,13.0,-100.00,WSW,253,0.0,0.0,91,0.00,,,-99.99,,2013-02-27 04:11:00,
2013-02-26 21:21:00,13.0,11.0,-100.00,WSW,253,1.0,2.0,91,0.00,,,-99.99,,2013-02-27 04:21:00,
2013-02-26 21:31:00,13.0,11.0,-100.00,WSW,253,1.0,2.0,91,0.00,,,-99.99,,2013-02-27 04:31:00,
2013-02-26 21:41:00,10.0,9.0,-100.00,WSW,253,0.0,1.0,94,0.00,,,-99.99,,2013-02-27 04:41:00,
2013-02-26 21:52:00,10.0,9.0,-100.00,WSW,253,0.0,1.0,94,0.00,,,-99.99,,2013-02-27 04:52:00,
2013-02-26 22:01:00,10.0,9.0,-100.00,WSW,253,0.0,1.0,94,0.00,,,-99.99,,2013-02-27 05:01:00,
2013-02-26 22:11:00,9.0,8.0,-100.00,WSW,253,0.0,1.0,96,0.00,,,-99.99,,2013-02-27 05:11:00,
2013-02-26 22:22:00,7.0,6.0,-100.00,WSW,253,1.0,2.0,94,0.00,,,-99.99,,2013-02-27 05:22:00,
2013-02-26 22:32:00,7.0,6.0,-100.00,WSW,253,1.0,2.0,94,0.00,,,-99.99,,2013-02-27 05:32:00,
2013-02-26 22:41:00,8.0,8.0,-100.00,WSW,253,1.0,2.0,97,0.00,,,-99.99,,2013-02-27 05:41:00,
2013-02-26 22:52:00,8.0,7.0,-100.00,WSW,253,1.0,1.0,97,0.00,,,-99.99,,2013-02-27 05:52:00,
2013-02-26 23:02:00,8.0,7.0,-100.00,WSW,253,1.0,1.0,97,0.00,,,-99.99,,2013-02-27 06:02:00,
2013-02-26 23:11:00,8.0,7.0,-100.00,WSW,253,0.0,0.0,97,0.00,,,-99.99,,2013-02-27 06:11:00,
2013-02-26 23:21:00,10.0,9.0,-100.00,SSE,150,1.0,2.0,97,0.00,,,-99.99,,2013-02-27 06:21:00,
2013-02-26 23:32:00,10.0,9.0,-100.00,SSE,150,1.0,2.0,97,0.00,,,-99.99,,2013-02-27 06:32:00,
2013-02-26 23:41:00,10.0,9.0,-100.00,South,171,1.0,1.0,96,0.00,,,-99.99,,2013-02-27 06:41:00,
2013-02-26 23:52:00,10.0,9.0,-100.00,South,171,1.0,1.0,96,0.00,,,-99.99,,2013-02-27 06:52:00,